When you browse on this site, cookies collect data to enhance your experience and personalize the content and advertising you see.
Visit our Privacy Policy to learn more. By continuing to use the site, you agree to this use of cookies and data.
  • In United Kingdom
  • List of Countries
  • For 7 days
  • Water Temperature
  • Weather Map
  • Weather Widgets
  • user-avatar
    Login

    Hourly Weather Aberfoyle

    Today, 25 August, Sunday

    Time Temperature Precipitation Wind Pressure Humidity
    00:00 +14°C° 0 mm 1 mps 739 mmHg 87%
    01:00 +14°C° 0 mm 1 mps 739 mmHg 88%
    02:00 +14°C° 0 mm 1 mps 739 mmHg 89%
    03:00 +13°C° 0 mm 1 mps 739 mmHg 89%
    04:00 +13°C° 0 mm 1 mps 739 mmHg 89%
    05:00 +13°C° 0 mm 1 mps 739 mmHg 88%
    06:00 +14°C° 0 mm 1 mps 739 mmHg 87%
    07:00 +16°C° 0 mm 1 mps 740 mmHg 81%
    08:00 +19°C° 0 mm 1 mps 740 mmHg 76%
    09:00 +21°C° 0 mm 1 mps 740 mmHg 70%
    10:00 +22°C° 0 mm 1 mps 740 mmHg 67%
    11:00 +23°C° 0 mm 1 mps 740 mmHg 64%
    12:00 +24°C° 0 mm 1 mps 740 mmHg 58%
    13:00 +25°C° 0 mm 2 mps 740 mmHg 58%
    14:00 +25°C° 0 mm 2 mps 740 mmHg 59%
    15:00 +26°C° 0 mm 2 mps 740 mmHg 59%
    16:00 +25°C° 0 mm 2 mps 740 mmHg 65%
    17:00 +24°C° 0 mm 2 mps 740 mmHg 71%
    18:00 +23°C° 0 mm 1 mps 739 mmHg 77%
    19:00 +21°C° 0 mm 1 mps 739 mmHg 82%
    20:00 +19°C° 0 mm 1 mps 740 mmHg 86%
    21:00 +16°C° 0 mm 1 mps 740 mmHg 90%
    22:00 +16°C° 0 mm 1 mps 740 mmHg 91%
    23:00 +15°C° 0 mm 1 mps 739 mmHg 92%

    Tomorrow, 26 August, Monday

    Time Temperature Precipitation Wind Pressure Humidity
    00:00 +14°C° 0 mm 1 mps 739 mmHg 93%
    01:00 +14°C° 0 mm 1 mps 739 mmHg 94%
    02:00 +13°C° 0 mm 1 mps 739 mmHg 94%
    03:00 +13°C° 0 mm 1 mps 739 mmHg 95%
    04:00 +13°C° 0 mm 1 mps 739 mmHg 95%
    05:00 +14°C° 0 mm 1 mps 739 mmHg 95%
    06:00 +14°C° 0 mm 1 mps 739 mmHg 95%
    07:00 +15°C° 0 mm 1 mps 739 mmHg 94%
    08:00 +16°C° 0 mm 1 mps 739 mmHg 93%
    09:00 +16°C° 0 mm 2 mps 739 mmHg 92%
    10:00 +17°C° 0.1 mm 2 mps 739 mmHg 86%
    11:00 +18°C° 0.1 mm 2 mps 739 mmHg 80%
    12:00 +19°C° 0.1 mm 3 mps 739 mmHg 74%
    13:00 +19°C° 0 mm 3 mps 739 mmHg 72%
    14:00 +19°C° 0 mm 3 mps 738 mmHg 70%
    15:00 +19°C° 0 mm 3 mps 738 mmHg 68%
    16:00 +19°C° 0 mm 3 mps 738 mmHg 70%
    17:00 +18°C° 0 mm 2 mps 738 mmHg 73%
    18:00 +17°C° 0 mm 2 mps 737 mmHg 75%
    19:00 +15°C° 0 mm 1 mps 737 mmHg 80%
    20:00 +13°C° 0 mm 1 mps 738 mmHg 85%
    21:00 +12°C° 0 mm 1 mps 738 mmHg 89%
    22:00 +11°C° 0 mm 1 mps 737 mmHg 90%
    23:00 +11°C° 0 mm 1 mps 737 mmHg 91%

    Day after tomorrow, 27 August, Tuesday

    Time Temperature Precipitation Wind Pressure Humidity
    00:00 +10°C° 0 mm 0 mps 737 mmHg 91%
    01:00 +9°C° 0 mm 0 mps 737 mmHg 92%
    02:00 +9°C° 0 mm 0 mps 737 mmHg 93%
    03:00 +9°C° 0 mm 0 mps 736 mmHg 93%
    04:00 +9°C° 0 mm 0 mps 736 mmHg 93%
    05:00 +10°C° 0 mm 0 mps 736 mmHg 93%
    06:00 +10°C° 0 mm 0 mps 736 mmHg 93%
    07:00 +11°C° 0 mm 0 mps 736 mmHg 89%
    08:00 +14°C° 0 mm 1 mps 736 mmHg 85%
    09:00 +15°C° 0 mm 1 mps 736 mmHg 82%
    10:00 +15°C° 0.5 mm 1 mps 736 mmHg 85%
    11:00 +14°C° 0.5 mm 1 mps 736 mmHg 89%
    12:00 +14°C° 0.5 mm 1 mps 735 mmHg 93%
    13:00 +15°C° 0.2 mm 1 mps 735 mmHg 85%
    14:00 +16°C° 0.2 mm 1 mps 735 mmHg 78%
    15:00 +18°C° 0.2 mm 2 mps 735 mmHg 70%
    16:00 +17°C° 0 mm 2 mps 735 mmHg 74%
    17:00 +16°C° 0 mm 2 mps 735 mmHg 77%
    18:00 +16°C° 0 mm 2 mps 735 mmHg 80%
    19:00 +15°C° 0 mm 2 mps 735 mmHg 83%
    20:00 +14°C° 0 mm 1 mps 735 mmHg 87%
    21:00 +13°C° 0 mm 1 mps 735 mmHg 90%
    22:00 +13°C° 0.1 mm 1 mps 735 mmHg 91%
    23:00 +13°C° 0.1 mm 1 mps 735 mmHg 92%

    28 August, Wednesday

    Time Temperature Precipitation Wind Pressure Humidity
    00:00 +13°C° 0.1 mm 1 mps 734 mmHg 93%
    01:00 +13°C° 0 mm 1 mps 734 mmHg 94%
    02:00 +13°C° 0 mm 1 mps 734 mmHg 94%
    03:00 +13°C° 0 mm 1 mps 733 mmHg 94%
    04:00 +13°C° 0.1 mm 1 mps 733 mmHg 95%
    05:00 +13°C° 0.1 mm 1 mps 733 mmHg 95%
    06:00 +13°C° 0.1 mm 1 mps 733 mmHg 95%
    07:00 +14°C° 0.2 mm 2 mps 733 mmHg 95%
    08:00 +14°C° 0.2 mm 2 mps 733 mmHg 94%
    09:00 +14°C° 0.2 mm 2 mps 733 mmHg 93%
    10:00 +15°C° 0.3 mm 2 mps 734 mmHg 92%
    11:00 +15°C° 0.3 mm 2 mps 734 mmHg 91%
    12:00 +14°C° 0.3 mm 3 mps 734 mmHg 90%
    13:00 +15°C° 0.2 mm 2 mps 734 mmHg 90%
    14:00 +15°C° 0.2 mm 2 mps 734 mmHg 89%
    15:00 +15°C° 0.2 mm 2 mps 734 mmHg 89%
    16:00 +15°C° 0.1 mm 2 mps 734 mmHg 89%
    17:00 +14°C° 0.1 mm 1 mps 734 mmHg 90%
    18:00 +14°C° 0.1 mm 1 mps 734 mmHg 90%
    19:00 +13°C° 0 mm 1 mps 734 mmHg 91%
    20:00 +12°C° 0 mm 1 mps 734 mmHg 93%
    21:00 +11°C° 0 mm 1 mps 734 mmHg 94%
    22:00 +11°C° 0 mm 1 mps 734 mmHg 94%
    23:00 +10°C° 0 mm 1 mps 734 mmHg 95%

    29 August, Thursday

    Time Temperature Precipitation Wind Pressure Humidity
    00:00 +9°C° 0 mm 1 mps 734 mmHg 95%
    01:00 +8°C° 0 mm 2 mps 734 mmHg 95%
    02:00 +7°C° 0 mm 2 mps 734 mmHg 95%
    03:00 +7°C° 0 mm 2 mps 734 mmHg 96%
    04:00 +6°C° 0 mm 2 mps 734 mmHg 95%
    05:00 +6°C° 0 mm 2 mps 734 mmHg 95%
    06:00 +7°C° 0 mm 1 mps 734 mmHg 95%
    07:00 +8°C° 0 mm 2 mps 735 mmHg 91%
    08:00 +10°C° 0 mm 2 mps 735 mmHg 87%
    09:00 +12°C° 0 mm 2 mps 735 mmHg 82%
    10:00 +12°C° 0.1 mm 3 mps 735 mmHg 80%
    11:00 +12°C° 0.1 mm 4 mps 735 mmHg 78%
    12:00 +13°C° 0.1 mm 5 mps 735 mmHg 76%
    13:00 +12°C° 0.4 mm 5 mps 735 mmHg 81%
    14:00 +12°C° 0.4 mm 5 mps 735 mmHg 85%
    15:00 +11°C° 0.4 mm 4 mps 735 mmHg 90%
    16:00 +11°C° 0.2 mm 4 mps 735 mmHg 91%
    17:00 +12°C° 0.2 mm 5 mps 735 mmHg 92%
    18:00 +12°C° 0.2 mm 5 mps 735 mmHg 93%
    19:00 +12°C° 0.2 mm 5 mps 735 mmHg 93%
    20:00 +12°C° 0.2 mm 5 mps 735 mmHg 94%
    21:00 +12°C° 0.2 mm 4 mps 735 mmHg 94%
    22:00 +12°C° 0.2 mm 5 mps 735 mmHg 95%
    23:00 +12°C° 0.2 mm 5 mps 735 mmHg 95%

    30 August, Friday

    Time Temperature Precipitation Wind Pressure Humidity
    00:00 +12°C° 0.2 mm 5 mps 734 mmHg 96%
    01:00 +12°C° 0.2 mm 5 mps 734 mmHg 95%
    02:00 +12°C° 0.2 mm 5 mps 734 mmHg 95%
    03:00 +11°C° 0.2 mm 6 mps 733 mmHg 94%
    04:00 +11°C° 0.9 mm 6 mps 733 mmHg 95%
    05:00 +11°C° 0.9 mm 6 mps 732 mmHg 95%
    06:00 +11°C° 0.9 mm 6 mps 732 mmHg 96%
    07:00 +11°C° 0.6 mm 6 mps 732 mmHg 95%
    08:00 +11°C° 0.6 mm 7 mps 732 mmHg 95%
    09:00 +12°C° 0.6 mm 7 mps 732 mmHg 95%
    10:00 +12°C° 1 mm 7 mps 732 mmHg 95%
    11:00 +12°C° 1 mm 7 mps 732 mmHg 95%
    12:00 +12°C° 1 mm 7 mps 733 mmHg 95%
    13:00 +13°C° 1 mm 6 mps 732 mmHg 95%
    14:00 +13°C° 1 mm 6 mps 732 mmHg 95%
    15:00 +13°C° 1 mm 6 mps 732 mmHg 95%
    16:00 +13°C° 1.1 mm 6 mps 732 mmHg 96%
    17:00 +13°C° 1.1 mm 6 mps 732 mmHg 96%
    18:00 +11°C° 1.1 mm 6 mps 732 mmHg 96%
    19:00 +12°C° 0.7 mm 5 mps 732 mmHg 95%
    20:00 +11°C° 0.7 mm 4 mps 732 mmHg 95%
    21:00 +11°C° 0.7 mm 3 mps 732 mmHg 94%
    22:00 +10°C° 0.3 mm 3 mps 732 mmHg 95%
    23:00 +9°C° 0.3 mm 2 mps 732 mmHg 96%
    Show more